Theta_e
342 342 343 345 346 347 348 350 349 349 349 349 350 350 349 349 348 347 346 347 347 345 344 344 344 344 347 345 345 347 346 345 344 344 345 345 345 346 346 346 345 344 343 342 342 341 341 342 342 342 344 343 344 334 334 332 333 334 333 333 334 334
341 342 343 344 346 347 348 348 347 346 346 347 348 349 347 346 348 344 347 345 344 345 343 343 342 348 344 345 344 346 346 345 345 344 345 345 345 346 346 346 345 344 343 342 342 338 338 340 343 343 344 344 337 333 335 333 332 332 332 332 334 336
341 342 342 344 346 346 345 345 346 345 346 348 347 347 345 346 344 343 344 343 344 344 344 343 343 345 344 345 345 346 346 345 345 344 344 344 345 346 346 346 345 345 344 343 341 337 333 332 332 340 342 337 332 333 336 332 332 332 332 333 331 338
342 343 342 344 345 344 344 344 344 344 345 344 344 345 343 343 342 343 342 341 342 345 345 343 349 350 346 342 344 346 346 346 345 345 344 345 345 346 346 346 346 345 344 343 338 333 333 331 329 330 331 330 331 334 334 332 332 332 332 335 333 339
343 343 343 343 343 342 342 342 342 343 343 343 342 342 342 342 341 341 340 341 343 345 341 338 338 337 341 341 340 338 338 338 339 339 344 338 338 341 341 339 339 341 338 337 337 334 334 331 331 332 331 331 333 336 333 332 332 332 331 332 334 338
340 340 341 341 342 343 340 340 341 342 342 342 341 340 339 339 339 339 340 344 346 342 339 338 335 336 337 339 340 338 336 336 335 336 341 339 337 337 338 339 340 339 338 337 336 335 335 336 331 331 332 333 334 335 331 331 331 331 331 332 336 338
339 339 341 342 341 340 339 341 341 341 341 340 339 338 337 338 338 339 339 343 343 341 337 335 336 336 336 335 336 338 337 335 333 333 336 337 336 335 337 337 338 338 338 337 337 336 336 338 336 332 333 334 334 333 332 331 331 331 330 331 336 337
338 339 340 341 339 339 340 340 340 345 342 342 339 337 337 337 339 339 340 344 345 341 337 335 334 335 336 336 336 335 337 338 336 335 336 336 334 332 337 337 338 339 338 337 336 337 338 339 336 333 333 332 333 332 332 331 331 330 330 330 332 336
339 339 340 340 339 339 340 340 341 340 339 344 338 338 338 338 338 340 341 342 343 338 336 337 336 336 336 336 336 337 337 336 336 337 335 332 332 332 333 335 337 338 337 336 335 337 337 336 334 333 332 332 332 333 332 331 330 330 330 330 331 334
339 339 340 340 339 339 339 339 339 339 338 343 337 338 340 338 338 339 340 342 342 339 336 335 336 337 336 335 335 336 337 336 336 336 336 330 330 332 330 332 334 335 336 335 336 338 336 334 334 331 331 331 331 333 332 331 330 329 329 329 330 334
340 341 340 338 338 337 338 338 338 338 340 339 338 339 340 339 338 339 340 340 341 341 337 335 335 336 336 335 336 335 335 335 336 336 336 335 337 337 334 331 331 332 333 333 336 336 336 334 333 332 330 331 332 333 332 331 330 330 330 330 331 331
339 340 339 338 338 338 338 338 338 339 338 338 338 338 338 338 339 339 340 341 339 339 338 334 336 336 335 334 335 335 334 335 335 337 336 336 337 338 334 334 333 334 336 336 336 337 336 333 332 332 330 331 332 332 332 332 331 330 330 331 331 331
338 337 337 338 337 337 338 339 339 338 339 339 338 337 336 337 338 339 340 341 339 338 339 336 336 337 337 335 335 336 335 336 336 337 337 337 337 335 333 333 333 335 334 338 337 336 337 335 333 332 332 338 334 335 334 333 331 331 330 331 331 331
338 337 337 337 337 336 337 339 339 339 341 339 339 338 340 339 341 340 340 340 340 339 338 337 336 337 337 336 334 335 336 335 337 338 337 338 337 336 334 333 333 333 336 335 337 335 334 333 333 333 331 330 330 331 334 334 332 331 330 330 330 330
338 337 338 336 336 335 337 339 339 339 340 340 341 340 341 342 341 340 340 339 339 338 339 339 338 337 336 336 335 334 335 336 337 336 336 335 336 336 335 334 334 332 330 331 335 337 335 333 333 333 331 333 332 333 333 334 335 332 330 330 329 329
336 336 335 336 337 338 339 340 340 344 341 342 342 342 342 342 342 341 340 338 338 338 338 338 338 339 337 337 336 336 336 336 337 336 336 335 336 334 335 335 336 334 329 330 334 334 334 332 332 330 330 331 330 331 331 333 333 332 332 330 329 328
336 336 336 337 338 340 342 341 341 342 341 342 341 341 342 342 341 340 340 339 339 339 338 338 339 339 338 337 337 336 335 336 336 336 334 333 333 335 334 336 334 333 331 331 332 333 333 333 330 331 331 330 330 332 332 333 333 333 333 331 331 329
336 336 336 336 338 341 341 341 340 340 341 339 339 340 340 342 341 340 341 340 340 340 339 338 338 338 337 338 338 336 336 336 336 336 334 334 333 335 336 335 333 331 330 329 329 330 331 332 331 331 328 330 332 333 334 333 333 335 332 333 333 332
337 336 337 338 339 341 340 338 337 339 338 338 339 339 339 338 339 340 341 341 341 340 340 337 338 338 336 336 335 335 336 336 337 335 335 334 332 332 334 335 332 330 331 331 330 331 331 330 330 330 330 330 331 332 331 332 333 333 332 331 332 333
335 336 337 337 339 339 338 337 336 338 338 339 339 338 338 338 339 340 341 341 341 340 340 339 338 337 336 336 335 334 335 336 336 335 334 333 332 332 332 334 331 330 329 331 332 331 333 330 329 327 329 330 330 330 330 331 332 332 332 331 329 330
335 336 336 336 336 337 334 335 335 337 336 337 337 337 338 339 340 338 341 341 340 339 339 339 338 336 335 338 336 334 334 335 335 335 334 333 332 332 332 333 331 330 329 329 328 328 330 330 327 325 326 325 326 329 332 332 329 329 331 331 331 330
336 336 336 336 336 337 336 335 333 334 332 333 336 335 336 338 339 341 340 340 339 339 339 338 338 336 336 336 335 334 334 334 334 334 333 332 331 334 333 333 333 329 330 329 328 332 331 330 325 322 320 318 321 323 328 330 331 330 331 331 331 329
333 336 336 337 337 336 336 336 335 334 334 334 336 338 337 338 341 340 339 338 339 339 338 337 337 337 336 336 335 334 334 334 334 335 333 332 333 333 332 332 331 329 327 329 329 332 331 329 323 324 324 320 316 317 321 325 328 331 331 330 329 330
336 336 335 337 336 336 336 336 335 335 335 334 333 340 337 337 337 336 336 339 337 337 337 336 337 337 337 336 335 334 334 333 334 335 334 333 332 332 332 332 332 330 329 325 327 328 332 330 327 324 317 317 317 317 313 320 324 326 330 329 328 329
335 335 334 336 335 335 334 334 334 334 334 334 334 333 332 332 334 335 336 336 337 337 337 336 336 336 337 335 335 335 334 334 333 334 334 333 333 333 332 332 332 331 329 328 326 326 328 330 329 328 323 318 314 314 315 320 323 321 328 326 327 329
334 333 333 332 334 334 334 331 330 328 328 328 328 328 330 329 331 332 334 335 337 338 337 335 336 336 336 336 335 335 334 334 333 333 333 333 333 333 332 332 333 332 330 329 327 326 325 328 330 329 328 325 322 317 318 322 322 315 326 325 327 330
333 332 333 332 333 332 332 332 329 328 328 328 327 330 332 333 332 333 334 334 335 335 336 335 335 336 336 336 335 334 334 334 334 333 333 332 332 333 333 333 334 332 331 330 329 325 325 326 327 329 329 328 328 329 328 323 318 320 318 323 327 327
332 332 331 332 333 332 331 331 331 330 329 328 328 329 333 334 333 334 334 334 334 334 336 336 336 336 337 337 336 335 335 335 334 333 333 333 332 333 333 334 334 334 333 332 331 329 327 326 326 325 329 327 327 328 329 328 325 321 318 317 320 326
332 331 332 332 332 333 332 331 330 330 329 331 331 331 332 333 334 333 332 332 332 333 334 335 335 336 336 337 337 335 334 333 333 333 334 333 333 333 333 332 332 332 331 332 332 331 329 327 326 326 326 326 325 326 327 327 326 322 318 316 317 321
330 331 332 332 332 333 335 334 331 330 330 329 330 332 332 331 332 333 332 331 332 333 333 333 333 334 333 335 335 333 333 333 333 333 334 333 332 333 333 332 332 331 331 330 331 331 329 327 327 328 328 328 326 326 324 323 323 323 322 321 318 319
328 327 328 329 329 328 330 332 332 332 331 332 334 334 333 331 331 330 330 329 331 332 333 333 334 335 335 336 333 333 332 331 331 332 333 334 331 330 331 332 331 330 330 330 330 330 327 327 327 326 327 327 327 326 324 321 322 324 321 319 318 319
325 325 325 326 325 326 327 328 329 329 331 332 332 332 332 332 332 331 330 329 329 329 328 329 330 331 332 332 331 332 332 332 331 331 332 332 333 332 332 331 330 329 328 329 330 330 330 327 327 327 327 330 329 329 327 325 326 326 323 321 320 319
324 324 324 324 324 325 326 326 328 330 330 330 328 329 329 329 331 332 333 331 327 326 327 327 328 330 329 331 332 330 331 331 331 329 330 332 332 332 333 329 328 328 328 329 330 330 329 329 329 329 328 330 330 329 328 328 328 326 325 324 322 318
323 323 324 325 326 326 326 327 328 329 328 327 327 327 327 328 330 330 332 331 331 330 329 329 329 328 331 331 331 330 330 330 331 331 331 330 331 331 331 330 330 328 328 330 331 331 330 330 329 329 329 328 329 329 329 329 328 326 324 323 321 320
320 321 322 324 325 325 324 325 326 327 326 326 325 325 326 328 328 328 329 329 329 330 330 331 331 331 331 331 330 331 330 329 329 330 330 330 331 331 330 330 329 330 330 330 329 331 331 330 329 327 327 327 328 328 329 329 328 326 326 325 323 321
320 320 321 321 321 322 323 325 325 324 324 324 324 324 324 325 326 327 327 328 328 328 329 329 331 331 332 330 330 331 331 330 329 328 327 329 329 329 330 329 329 329 328 331 328 327 329 329 328 327 328 329 327 328 329 329 329 328 327 326 325 324
319 319 318 320 319 322 323 322 321 322 322 321 321 321 322 322 324 326 326 327 327 329 330 330 331 331 331 330 330 330 330 330 329 328 327 328 328 328 329 328 327 328 327 329 328 328 330 329 329 328 328 328 328 329 329 329 329 329 328 328 327 325
Wind_Speed
10 11 10 9 8 8 10 15 12 14 14 12 12 13 13 13 11 10 8 8 8 6 6 5 6 5 7 4 6 4 7 4 4 3 3 1 0 1 2 3 3 2 2 2 2 4 4 6 6 7 8 7 8 4 4 5 8 7 6 5 4 5
10 11 11 9 8 8 8 11 8 7 6 8 9 10 8 6 8 5 8 7 6 6 5 5 5 7 4 5 7 9 8 7 5 5 4 2 1 2 3 4 4 3 3 3 3 2 3 5 7 7 7 8 3 2 1 5 7 7 7 5 5 6
13 13 13 10 8 7 8 6 6 6 5 7 7 6 4 6 6 6 6 6 4 3 5 5 4 6 6 8 6 11 12 10 8 6 5 3 3 3 4 4 5 5 4 5 3 3 3 4 4 7 7 5 2 3 1 5 7 7 6 5 4 11
13 13 11 9 7 7 6 6 4 5 5 6 5 5 6 7 6 7 6 5 4 3 3 4 8 13 10 5 4 7 10 13 11 8 7 4 4 4 4 4 5 6 4 3 3 4 3 5 4 4 3 5 3 2 3 4 7 6 6 6 5 12
7 8 9 8 7 6 4 5 6 5 5 6 7 8 8 7 6 7 7 5 4 3 4 4 2 1 1 3 4 4 3 2 3 4 7 4 4 4 4 2 3 3 3 4 4 5 4 4 5 4 5 4 4 4 6 6 7 6 6 5 6 12
6 6 6 7 7 6 7 7 7 7 7 7 8 7 6 5 5 3 3 4 4 4 3 3 2 1 2 3 1 1 1 1 2 3 4 5 4 4 5 5 4 4 4 4 5 5 5 5 6 5 5 5 4 5 6 6 6 6 6 6 7 14
10 9 9 9 8 8 8 8 8 8 9 8 6 6 5 4 4 3 2 3 4 4 3 2 3 2 0 1 2 2 2 2 2 2 2 4 4 4 5 5 5 5 4 4 5 6 6 6 7 4 5 7 3 8 6 6 6 6 6 6 7 12
9 9 10 10 10 8 7 8 8 8 7 6 6 5 6 5 3 3 2 2 3 4 5 3 2 3 3 2 3 2 2 2 2 3 3 3 4 4 5 5 5 5 5 5 6 6 6 5 6 3 4 5 2 8 6 7 7 7 6 5 5 9
9 9 8 8 8 7 6 6 6 6 6 6 6 6 5 4 4 3 3 3 3 4 4 4 4 5 4 4 4 5 4 3 2 2 2 5 5 4 4 5 5 5 5 5 6 6 4 5 4 2 4 3 3 8 7 7 6 7 6 5 6 8
7 8 6 6 6 5 5 4 4 5 4 4 3 4 4 4 3 3 4 3 4 4 4 4 4 3 5 5 3 3 3 3 3 3 2 4 5 4 5 3 4 4 5 5 5 6 5 5 5 3 3 4 3 8 8 7 7 6 6 6 6 7
5 5 5 5 4 2 1 0 0 1 3 3 3 4 4 3 3 3 3 3 3 4 4 4 4 4 4 5 4 4 4 2 4 4 3 3 1 1 3 5 6 6 5 5 6 6 5 4 4 4 3 3 4 7 8 7 7 6 6 6 5 5
4 4 3 4 4 3 3 2 2 2 3 2 2 3 2 4 3 4 3 3 2 4 3 3 3 4 5 5 5 5 5 6 5 5 5 4 3 0 1 3 4 3 4 3 6 5 3 4 4 5 3 2 1 5 9 8 8 7 7 6 6 5
4 3 4 6 5 4 4 4 4 4 3 3 3 1 2 3 4 4 4 4 4 4 4 5 5 4 4 5 5 5 5 6 5 5 4 4 3 1 1 2 5 5 4 3 3 4 3 3 3 3 5 1 1 1 5 6 7 7 7 7 6 6
5 5 5 5 6 5 4 3 2 4 4 4 4 3 3 4 4 4 5 5 6 5 5 6 6 5 5 4 5 5 4 4 3 4 4 3 3 3 3 2 4 5 5 4 4 5 4 4 5 2 3 3 3 2 6 8 5 7 8 7 7 7
5 5 5 4 5 5 3 4 4 3 4 4 4 5 4 4 4 4 5 5 5 5 5 4 4 5 4 4 4 5 4 4 4 4 4 4 4 3 4 3 4 5 6 4 4 4 4 4 3 2 0 2 1 2 6 6 7 7 8 7 7 7
5 5 5 5 5 6 5 4 4 4 4 5 5 5 5 6 6 5 5 5 4 5 5 4 4 4 5 4 5 5 5 4 4 4 4 3 4 4 3 2 3 2 5 5 4 4 4 5 1 5 2 4 7 8 8 4 2 6 8 7 7 7
7 6 5 5 5 5 5 5 4 5 5 5 5 6 6 5 5 6 6 5 5 5 5 5 5 5 5 5 5 5 4 3 2 4 4 3 3 3 3 3 4 1 1 0 2 4 3 3 5 4 2 4 3 4 3 3 6 9 2 8 7 7
6 6 6 6 5 5 4 4 4 4 3 4 3 3 3 3 5 5 6 6 6 6 6 6 6 6 6 6 5 5 4 4 3 2 3 4 4 2 4 4 5 2 1 0 0 1 2 0 5 4 0 2 3 3 3 4 1 3 4 1 6 7
6 6 6 6 4 4 5 3 3 3 3 3 3 2 1 1 1 3 5 5 7 6 5 5 6 5 6 5 4 4 4 4 5 4 4 3 4 2 2 3 4 4 0 2 2 0 2 3 1 3 3 2 2 4 3 3 3 2 4 3 2 5
6 6 6 5 5 5 5 5 5 3 3 3 3 2 2 3 3 3 4 5 6 6 5 5 6 6 5 5 4 4 4 4 4 4 5 5 4 4 5 4 4 4 3 3 2 4 4 4 2 2 1 2 1 2 2 1 3 4 1 4 0 2
6 5 6 6 5 5 4 3 3 5 5 5 4 4 4 4 5 5 4 4 5 5 5 6 6 5 6 5 5 4 5 5 5 5 5 5 4 5 5 5 4 3 6 5 1 4 4 3 3 2 3 2 3 1 1 4 2 2 4 4 5 4
5 5 5 5 3 3 3 4 3 4 3 4 4 4 4 4 5 5 5 5 5 5 5 5 5 5 4 4 4 4 5 5 5 5 4 3 3 3 4 4 4 3 2 4 3 6 5 5 1 4 2 0 1 1 1 2 3 3 5 4 5 5
4 5 4 4 4 3 2 1 1 1 1 1 3 4 5 5 5 5 4 4 4 5 6 5 5 5 4 4 5 4 5 4 5 5 4 5 4 5 5 5 4 4 2 2 2 3 6 6 4 3 2 4 2 1 2 2 2 5 5 5 5 5
4 4 4 4 4 4 3 2 3 2 1 0 1 1 0 0 3 3 3 4 3 5 5 5 5 5 4 4 5 6 5 5 5 5 6 6 5 6 5 5 4 5 4 3 3 4 5 6 3 7 2 3 3 3 2 6 5 3 5 5 6 5
4 4 3 3 4 4 2 2 1 0 1 2 3 2 1 2 3 4 3 3 5 4 4 5 5 5 5 5 5 6 6 5 5 5 5 5 6 6 6 6 6 5 7 6 6 4 4 6 6 7 6 3 1 1 4 3 6 3 4 3 3 5
3 4 4 3 3 3 3 3 2 1 1 2 4 3 5 4 3 4 5 3 4 5 5 4 4 4 4 5 5 6 5 5 5 5 5 5 5 5 6 7 8 7 7 6 5 5 5 5 7 8 6 5 5 5 5 3 6 5 3 2 4 4
4 3 3 4 3 3 2 1 2 2 3 3 3 4 3 3 5 4 3 3 4 3 4 5 4 4 5 5 5 6 6 5 5 5 4 5 6 7 7 7 7 7 8 6 5 6 7 5 4 7 7 4 4 4 4 6 5 4 4 2 4 5
4 4 3 3 3 2 1 0 0 1 2 3 2 3 3 4 3 3 3 3 3 3 3 3 5 6 6 7 6 5 5 4 5 6 7 8 8 7 6 6 7 9 7 7 8 8 7 6 8 6 7 7 9 3 6 0 3 7 5 6 4 2
4 3 3 3 1 0 1 0 0 1 2 3 2 2 2 2 2 1 2 2 2 3 3 4 4 5 6 6 5 5 4 2 4 6 7 7 6 6 7 6 6 7 8 8 8 8 6 7 8 8 6 7 4 5 7 3 2 3 3 4 4 7
5 4 4 5 4 4 3 2 2 2 2 3 2 3 3 3 3 1 1 3 4 4 5 4 4 3 4 4 5 2 2 4 5 7 6 5 5 5 5 7 8 8 8 9 7 7 8 7 7 7 8 8 7 6 5 3 1 2 0 2 5 8
5 5 5 4 4 4 4 3 3 3 3 4 4 4 3 2 1 2 3 3 4 5 4 5 5 4 4 5 2 1 1 2 4 5 5 5 5 6 7 8 8 7 7 9 8 8 8 8 7 6 6 7 9 9 9 8 7 5 4 3 2 5
5 4 4 3 4 3 4 4 4 4 4 4 4 4 4 5 3 3 3 3 2 2 3 3 3 4 6 3 2 4 4 4 7 8 6 5 6 7 7 7 6 7 7 7 6 8 9 8 10 8 11 9 8 7 7 7 7 7 7 6 7 6
4 5 4 3 4 4 4 5 4 4 5 4 4 4 3 4 4 4 3 3 3 3 3 2 4 4 4 4 4 4 5 7 6 4 4 6 5 6 5 3 4 5 6 7 8 9 8 9 10 9 9 9 7 7 8 6 6 7 6 6 7 5
5 6 6 4 4 4 5 4 4 4 5 4 5 4 4 4 4 3 3 3 3 4 5 4 4 5 6 5 5 6 6 6 4 4 5 2 2 4 4 5 5 7 9 8 8 9 10 10 9 9 6 6 7 7 6 6 6 6 7 7 6 7
5 5 4 6 6 6 4 4 4 6 7 6 6 5 5 5 4 4 4 4 3 3 4 5 5 5 4 5 4 5 6 5 5 6 5 5 6 4 2 3 5 6 7 7 6 7 9 10 10 8 8 9 8 6 6 6 6 6 6 8 8 7
4 4 5 5 5 6 6 6 7 7 6 5 5 4 5 5 6 5 5 5 5 4 4 4 5 4 4 2 3 4 4 6 5 4 4 5 6 4 5 5 4 5 8 5 5 8 9 8 8 9 10 10 6 8 7 6 6 6 7 6 6 7
4 4 4 5 6 6 6 6 6 5 5 4 5 4 4 5 6 6 6 6 5 5 5 4 5 4 4 3 4 5 6 7 6 5 4 4 3 4 5 9 9 7 7 4 6 10 10 10 9 8 7 6 8 7 7 7 7 6 6 6 6 7
Wind_Direction
131 137 139 139 142 146 150 151 156 161 161 149 133 130 133 134 135 136 138 149 152 156 166 159 158 167 167 151 159 146 158 140 154 149 134 115 126 139 178 140 154 178 218 214 234 280 290 292 299 307 312 316 330 33 20 100 105 104 99 97 100 108
139 147 149 150 153 157 158 162 166 162 152 140 130 130 137 135 135 144 162 167 177 179 168 173 171 170 181 176 169 167 165 166 163 177 133 146 207 199 189 172 173 187 225 247 248 268 288 295 296 293 293 301 347 56 38 120 115 111 106 105 108 116
158 157 153 152 154 158 163 166 163 158 151 130 127 126 150 154 156 167 175 182 193 196 176 181 194 176 179 191 186 177 168 169 175 182 175 162 203 210 200 183 187 185 212 254 264 277 277 279 284 287 293 304 323 35 139 130 111 108 115 121 125 120
161 154 148 148 148 156 166 161 165 164 145 118 121 158 177 179 172 174 183 184 196 187 165 181 207 190 180 185 183 189 182 170 169 179 191 189 199 194 204 197 192 196 196 240 263 264 265 261 262 269 277 279 279 85 111 121 114 119 122 126 122 122
133 138 135 134 142 159 141 147 171 161 134 137 161 176 184 184 176 176 185 182 179 160 143 165 205 30 62 184 183 200 219 227 173 169 180 172 174 178 175 182 191 193 200 218 248 257 257 259 250 245 252 254 258 110 138 133 120 124 128 126 127 129
100 93 112 136 152 148 150 171 171 162 155 164 168 171 181 177 164 143 181 162 144 124 141 158 110 32 18 337 282 286 271 271 242 203 174 188 184 177 173 189 193 198 216 217 238 255 252 244 246 231 232 243 239 115 134 125 125 123 127 133 137 138
132 131 132 144 153 158 175 174 171 170 168 176 160 155 181 186 159 144 144 125 133 134 126 97 92 95 48 357 335 330 282 259 275 273 236 198 206 193 176 188 192 205 213 219 236 242 249 248 245 214 228 240 195 128 131 123 123 128 133 138 142 141
136 136 145 155 156 167 177 176 179 176 172 165 139 160 184 181 158 158 148 136 136 136 131 123 140 146 165 180 216 231 299 303 249 236 241 214 222 224 188 185 189 204 214 220 233 242 243 241 245 204 212 203 201 115 130 132 137 139 136 138 129 140
133 141 151 157 157 162 183 181 180 172 159 168 155 168 166 153 168 157 145 146 146 129 125 146 177 193 191 209 187 200 205 226 256 279 258 222 210 230 211 189 188 205 212 222 229 247 257 276 287 300 211 195 166 124 131 135 142 140 140 139 135 138
142 149 152 149 149 160 180 176 187 175 149 142 119 130 151 171 166 153 145 165 171 141 149 172 181 192 197 221 208 204 202 215 234 236 280 250 217 219 213 204 203 214 226 228 227 238 240 258 291 281 247 203 150 134 137 143 144 146 142 137 141 145
148 151 146 136 130 108 60 70 282 74 86 109 144 154 165 142 142 145 152 170 158 150 159 185 199 194 202 215 215 201 208 199 242 248 232 258 324 350 277 224 201 202 221 239 232 220 219 235 277 290 262 218 157 143 140 138 142 143 140 141 143 149
128 129 112 90 82 88 97 149 163 104 110 122 156 179 136 115 142 165 167 169 146 139 148 194 206 212 206 209 221 210 196 198 212 227 227 231 219 161 288 299 295 230 205 219 234 206 198 216 258 274 294 255 168 163 135 145 145 144 144 146 149 143
103 108 111 115 125 129 145 156 168 160 152 153 155 143 157 162 175 180 182 171 162 160 171 187 211 214 213 212 220 223 211 205 197 195 213 216 210 198 295 297 292 294 252 217 240 240 193 213 249 262 273 267 64 52 66 124 140 144 150 154 151 147
127 131 127 124 134 134 145 150 159 157 158 153 162 170 198 188 184 175 173 168 169 178 186 194 192 205 210 207 212 219 216 214 195 178 183 190 205 186 203 219 260 278 255 201 212 225 217 256 255 268 245 224 142 151 90 137 175 158 156 160 155 149
128 121 126 122 130 136 154 163 171 168 159 164 177 189 191 183 191 186 175 181 173 177 189 200 199 195 209 212 217 221 214 207 195 177 172 186 182 195 196 203 224 258 258 236 216 212 208 230 252 277 123 57 10 67 134 154 185 170 161 156 150 152
127 118 125 142 142 152 164 176 179 178 174 186 186 194 187 180 182 177 170 170 172 177 186 198 202 194 201 205 209 214 211 179 175 166 175 176 182 203 207 224 245 242 244 238 207 224 217 232 316 38 28 18 29 15 350 325 127 202 158 149 153 157
131 131 139 144 149 161 174 176 177 177 186 198 191 201 195 182 177 180 173 165 174 178 187 197 203 202 192 201 204 202 205 191 184 160 168 187 203 216 203 220 245 206 129 176 252 226 217 241 83 63 305 81 112 85 85 39 341 336 319 145 156 158
137 141 144 156 168 161 155 148 160 166 182 196 201 205 219 184 183 179 165 168 172 179 185 192 202 199 196 202 201 194 183 179 180 167 165 194 212 207 212 210 228 201 133 110 307 350 302 11 95 111 327 43 49 68 75 109 357 70 340 319 131 150
143 148 154 162 164 154 154 162 160 160 184 218 239 236 261 330 217 182 180 172 173 180 192 196 203 201 195 197 197 202 184 172 162 170 172 195 216 229 239 206 204 224 114 169 171 91 17 92 123 104 111 87 90 85 85 113 141 176 132 312 134 134
147 154 157 159 163 155 159 169 172 178 190 223 247 251 244 219 230 218 177 165 176 184 191 194 206 204 196 195 194 196 189 175 171 173 185 184 194 199 213 207 218 181 232 257 220 43 12 99 42 57 44 63 82 121 134 125 155 154 154 146 268 120
160 155 151 163 168 167 163 180 187 183 184 196 205 210 209 220 221 201 187 177 172 178 187 199 203 197 200 199 194 194 187 186 175 180 188 201 190 197 207 208 194 203 183 206 179 145 234 135 118 37 12 23 20 15 156 152 147 169 174 169 173 150
159 163 166 170 165 144 165 177 162 175 175 191 204 187 205 212 209 201 190 181 186 181 195 205 206 199 202 199 198 194 194 193 184 188 192 187 201 216 212 211 176 188 204 191 198 172 177 127 179 169 153 298 336 331 268 184 163 204 175 180 164 151
161 142 147 145 129 130 119 126 108 169 144 218 215 186 187 207 202 197 192 188 176 185 189 200 197 195 194 199 201 204 213 202 192 188 188 195 198 214 215 210 194 189 191 201 199 172 172 181 168 151 115 100 219 200 272 281 220 175 176 174 166 157
111 105 97 94 107 107 116 135 116 125 156 155 212 285 309 182 179 167 194 196 190 184 190 200 192 193 190 192 197 205 212 207 204 195 192 196 201 213 210 217 201 199 165 182 199 221 191 189 169 139 165 197 193 164 206 232 199 209 178 178 171 164
120 125 126 131 126 139 132 110 143 163 7 345 337 321 326 292 211 197 196 201 217 199 196 196 190 192 193 197 205 213 211 213 206 205 196 198 204 209 210 211 205 196 196 194 197 202 212 195 193 193 148 123 36 244 225 207 163 220 164 175 193 164
106 102 113 122 138 119 141 132 119 128 199 242 267 272 244 221 216 217 208 202 213 200 197 198 195 194 198 198 210 216 214 211 212 210 209 215 215 206 208 212 211 202 209 213 193 190 211 208 201 209 207 189 163 180 181 191 145 209 185 193 170 172
99 92 96 104 93 73 59 117 163 177 197 200 213 260 236 209 182 211 196 187 208 213 203 196 206 203 210 210 213 219 220 213 206 207 215 215 218 216 211 210 204 203 209 200 190 203 205 195 193 222 222 230 309 276 181 142 196 115 170 196 182 177
97 97 97 92 83 91 101 100 44 329 294 279 246 243 252 240 200 167 160 188 198 228 228 210 211 213 214 219 213 211 223 222 206 208 212 215 216 215 213 210 201 206 202 197 199 206 204 184 186 210 203 204 208 242 280 225 159 165 156 167 195 135
77 80 57 63 76 105 144 172 206 239 283 276 278 279 306 341 41 114 156 197 211 241 253 244 221 215 224 221 212 200 178 197 241 238 217 221 228 225 224 219 209 205 204 203 201 207 200 198 198 203 181 214 177 188 236 256 142 131 141 155 182 183
63 47 51 46 42 26 9 347 1 321 319 304 326 329 2 39 348 343 194 203 210 221 236 257 262 252 238 231 219 191 173 182 199 234 236 226 229 236 242 234 222 212 206 205 204 200 206 208 211 209 200 190 187 189 192 241 252 179 123 148 165 191
53 48 44 44 39 22 12 21 38 19 9 358 354 346 349 338 234 292 279 227 218 223 217 223 234 246 259 240 306 113 195 189 225 229 225 234 234 232 235 235 228 222 215 213 212 211 212 229 234 220 231 223 200 190 187 195 192 192 172 162 145 192
40 46 38 43 35 11 24 14 13 21 21 21 12 11 3 347 316 272 263 270 244 249 274 263 248 216 228 236 209 191 202 209 233 233 217 194 237 230 216 227 251 232 227 220 222 224 219 211 214 207 210 218 210 199 195 196 192 182 187 190 178 185
26 28 10 28 15 20 31 24 16 21 23 14 16 16 10 358 345 341 316 303 298 278 256 257 249 249 250 238 234 232 208 201 212 222 231 211 213 225 220 166 232 274 250 231 223 222 225 217 209 202 202 216 210 200 202 198 179 188 195 177 176 162
24 23 5 12 26 34 24 14 15 19 19 23 16 13 358 346 330 332 325 317 301 286 283 262 240 226 234 233 228 234 228 225 209 199 215 231 289 246 218 216 226 218 235 242 234 230 231 228 217 216 213 219 217 211 201 186 183 177 178 170 182 177
20 4 20 26 21 19 1 348 6 26 29 19 12 1 345 329 318 318 317 317 303 286 281 280 272 255 223 222 235 242 236 227 206 201 201 199 230 238 282 219 207 255 246 226 238 247 236 225 219 208 206 217 216 214 201 195 177 189 181 186 180 177
5 6 18 27 13 5 0 17 34 28 21 14 1 356 342 336 332 331 327 322 313 307 289 282 274 261 262 187 206 238 231 227 221 222 209 211 210 187 220 254 233 218 236 232 227 245 245 235 233 215 207 211 202 211 199 198 199 193 197 188 181 178
20 23 14 18 22 22 28 36 23 21 8 360 348 340 331 331 338 338 337 328 316 306 299 292 281 254 260 224 225 226 240 244 241 229 226 223 217 210 200 236 234 217 236 235 231 239 240 229 218 217 216 203 208 205 198 198 204 202 198 192 187 184